This demonstration page uses our WeatherBlox Daily Observations layout. Learn more.

Left ArrowRight Arrow

38.20091, -84.87328

Hourly Observations for July 20, 2015

Temp ( °F °C ) Dew Point ( °F °C ) Humidity (%) Winds ( mph kmh ) Pressure ( in mb ) Visibility ( mi km ) Precip ( " mm )
12:53 am 00:53 Clear 73 22.8 70 21.1 90 90 WSW 5 7 29.90 1013 9 14 0.00 0.00
1:53 am 01:53 Clear 73 22.8 70 21.1 90 90 Calm 29.88 1012 9 14 0.00 0.00
2:53 am 02:53 Clear 72 22.2 69 20.6 91 91 Calm 29.87 1012 9 14 0.00 0.00
3:53 am 03:53 Clear 72 22.2 70 21.1 94 94 Calm 29.87 1011 7 11 0.00 0.00
4:53 am 04:53 Clear 71 21.7 69 20.6 94 94 NNW 3 6 29.87 1011 7 11 0.00 0.00
5:53 am 05:53 Clear 71 21.7 68 20 90 90 Calm 29.88 1012 9 14 0.00 0.00
6:53 am 06:53 Sunny 70 21.1 68 20 93 93 Calm 29.88 1012 7 11 0.00 0.00
7:53 am 07:53 Cloudy with Light Rain 74 23.3 71 21.7 91 91 ESE 3 6 29.88 1012 7 11 0.00 0.03
8:53 am 08:53 Mostly Cloudy 75 23.9 72 22.2 90 90 Calm 29.89 1012 9 14 0.00 0.03
9:53 am 09:53 Sunny 79 26.1 72 22.2 79 79 Calm 29.87 1012 10 16 0.00 0.00
10:53 am 10:53 Mostly Cloudy 80 26.7 71 21.7 74 74 SW 5 7 29.85 1011 10 16 0.00 0.00
11:53 am 11:53 Partly Cloudy 82 27.8 71 21.7 69 69 SSW 8 13 29.85 1011 10 16 0.00 0.00
12:53 pm 12:53 Cloudy 82 27.8 71 21.7 69 69 WSW 7 11 29.85 1011 10 16 0.00 0.00
1:32 pm 13:32 Mostly Cloudy 83 28.3 72 22.2 70 70 SSW 6 9 29.85 1011 10 16 0.00 0.00
1:43 pm 13:43 Mostly Cloudy 83 28.3 72 22.2 70 70 W 7 11 29.85 1011 10 16 0.00 0.00
1:53 pm 13:53 Mostly Cloudy 83 28.3 72 22.2 70 70 SW 8 13 29.84 1011 10 16 0.00 0.00
2:23 pm 14:23 Cloudy 82 27.8 72 22.2 72 72 WSW 6 9 29.85 1011 10 16 0.00 0.00
2:53 pm 14:53 Mostly Cloudy 83 28.3 72 22.2 70 70 WSW 6 9 29.83 1010 9 14 0.00 0.00
3:12 pm 15:12 Cloudy 83 28.3 73 22.8 72 72 WSW 7 11 29.83 1010 9 14 0.00 0.00
3:53 pm 15:53 Partly Cloudy 84 28.9 72 22.2 67 67 WSW 8 13 29.82 1010 9 14 0.00 0.00
4:53 pm 16:53 Partly Cloudy 85 29.4 72 22.2 65 65 W 9 15 29.79 1009 7 11 0.00 0.00
5:35 pm 17:35 Mostly Cloudy 83 28.3 72 22.2 70 70 WNW 5 7 29.77 1008 7 11 0.00 0.00
5:51 pm 17:51 Partly Cloudy 84 29 72 22 66 66 NNW 3 6 29.71 1006 7 11 0.00 0.00
5:53 pm 17:53 Partly Cloudy 85 29.4 72 22.2 65 65 WNW 3 6 29.75 1008 7 11 0.00 0.00
6:53 pm 18:53 Hazy 83 28.3 72 22.2 70 70 WNW 3 6 29.78 1009 6 10 0.00 0.00
7:53 pm 19:53 Mostly Cloudy 83 28.3 73 22.8 72 72 W 3 6 29.79 1009 7 11 0.00 0.00
8:53 pm 20:53 Hazy 81 27.2 73 22.8 77 77 Calm 29.78 1008 6 10 0.00 0.00
9:53 pm 21:53 Clear 79 26.1 73 22.8 82 82 W 3 6 29.76 1008 7 11 0.00 0.00
10:53 pm 22:53 Hazy 78 25.6 73 22.8 85 85 Calm 29.77 1008 6 10 0.00 0.00
11:44 pm 23:44 Mostly Cloudy with Mist and Fog 78 25.6 74 23.3 87 87 SW 3 6 29.77 1008 5 8 0.00 0.00
11:53 pm 23:53 Cloudy with Mist and Fog 78 25.6 74 23.3 87 87 SW 3 6 29.78 1008 5 8 0.00 0.00

Powered by AerisWeather